PROFILE

 METAR AND TAF INFORMATION
ADDS - METARS form results

(0054 UTC 20 February 2020)
http://aviationweather.gov/metar/data/
 
DTMB 200030Z 29009KT CAVOK 12/05 Q1025
DTMB 200000Z 27008KT 230V310 CAVOK 12/05 Q1025
TAF DTMB 192300Z 2000/2024 27008KT CAVOK 

 AIRPORT MAP

 RUNWAY INFORMATION
Runway 07 Runway length 9678 ft Runway width 148 ft
Runway elevation 8 ft Runway displaced threshold 0 ft Runway heading 74
Runway 25 Runway length 9678 ft Runway width 148 ft
Runway elevation 8 ft Runway displaced threshold 0 ft Runway heading 254

 AIRPORT FREQUENCIES
Type APP Name BOURGUIBA Frequency 119.3 MHZ
Type ATIS Name MONASTIR A Frequency 113.1 MHZ
Type TWR Name BOURGUIBA Frequency 118.3 MHZ

 AIRPORT NEAR NAVIGATION AIDS
Type VOR-DME Name Monastir Frequency 113100 KHZ